This demonstration page uses our WeatherBlox Daily Observations layout. Learn more.

39.01783, -85.05884

Hourly Observations for August 23, 2020

Temp ( °F °C ) Dew Point ( °F °C ) Humidity (%) Winds ( mph kmh ) Pressure ( in mb ) Visibility ( mi km ) Precip ( " mm )
12:52 am 00:52 Partly Cloudy 68 20 66 18.9 93 93 Calm 29.98 1015 10 16.0934 0 0
1:52 am 01:52 Mostly Clear 68 20 66 18.9 93 93 SSE 3 6 29.98 1015 10 16.0934 0 0
2:40 am 02:40 Mostly Clear 68 20 65 18.3 90 90 E 3 6 29.99 1015 7 11.26538 0 0
2:52 am 02:52 Clear 68 20 66 18.9 93 93 E 3 6 29.98 1015 9 14.48406 0 0
3:52 am 03:52 Clear 67 19.4 65 18.3 93 93 SSE 5 7 29.98 1015 10 16.0934 0 0
4:32 am 04:32 Mostly Cloudy with Mist and Fog 67 19.4 65 18.3 93 93 S 5 7 29.99 1016 6 9.65604 0 0
4:52 am 04:52 Partly Cloudy with Mist and Fog 68 20 66 18.9 93 93 Calm 29.98 1015 6 9.65604 0 0
5:52 am 05:52 Mostly Cloudy with Mist and Fog 67 19.4 66 18.9 97 97 Calm 29.99 1016 5 8.0467 0 0
6:52 am 06:52 Partly Cloudy with Mist and Fog 67 19.4 65 18.3 93 93 Calm 30.01 1016 5 8.0467 0 0
7:52 am 07:52 Partly Cloudy with Mist and Fog 68 20 67 19.4 96 96 S 5 7 30.02 1017 5 8.0467 0 0
8:52 am 08:52 Mostly Cloudy 72 22.2 67 19.4 84 84 W 3 6 30.04 1017 9 14.48406 0 0
9:52 am 09:52 Mostly Cloudy 73 22.8 68 20 84 84 S 6 9 30.04 1017 10 16.0934 0 0
10:52 am 10:52 Partly Cloudy 77 25 67 19.4 71 71 W 3 6 30.06 1018 10 16.0934 0 0
11:52 am 11:52 Mostly Cloudy 79 26.1 67 19.4 67 67 S 8 13 30.06 1018 10 16.0934 0 0
12:52 pm 12:52 Partly Cloudy 80 26.7 67 19.4 64 64 SW 8 13 30.04 1017 10 16.0934 0 0
1:52 pm 13:52 Mostly Cloudy 83 28.3 67 19.4 59 59 W 5 7 30.03 1017 10 16.0934 0 0
2:52 pm 14:52 Mostly Cloudy 83 28.3 68 20 61 61 VRB 3 6 30.01 1016 10 16.0934 0 0
3:52 pm 15:52 Mostly Cloudy 84 28.9 66 18.9 55 55 SW 8 13 30.01 1016 10 16.0934 0 0
4:24 pm 16:24 Mostly Cloudy with Thunderstorms 80 26.7 67 19.4 64 64 W 12 19 29.99 1015 10 16.0934 0 0
4:40 pm 16:40 Mostly Cloudy 79 26.1 68 20 69 69 W 7 11 29.99 1016 10 16.0934 0 0
4:52 pm 16:52 Mostly Cloudy 80 26.7 69 20.6 69 69 W 6 9 30 1016 10 16.0934 0 0
5:52 pm 17:52 Mostly Cloudy 82 27.8 67 19.4 60 60 W 5 7 30 1016 10 16.0934 0.001 0.001
6:52 pm 18:52 Partly Cloudy 83 28.3 67 19.4 59 59 WSW 6 9 30 1016 10 16.0934 0 0
7:52 pm 19:52 Mostly Sunny 79 26.1 69 20.6 72 72 SW 3 6 30.01 1016 10 16.0934 0 0
8:52 pm 20:52 Mostly Clear 75 23.9 68 20 79 79 SSW 5 7 30.01 1016 10 16.0934 0 0
9:52 pm 21:52 Mostly Clear 74 23.3 66 18.9 76 76 WSW 3 6 30.04 1017 10 16.0934 0 0
10:52 pm 22:52 Mostly Clear 74 23.3 66 18.9 76 76 Calm 30.04 1017 10 16.0934 0 0
11:52 pm 23:52 Clear 71 21.7 66 18.9 84 84 SSW 3 6 30.04 1017 10 16.0934 0 0

Powered by AerisWeather